F2092 Weather Reports


time (UTC)temp
C
wind
direction
speed
KPH
gust
KPH
rain 1hr
cm
rain 24hr
cm
rain mn
cm
humidity
%
barometer
mb
20260502123815 12 236 1.6 6.4 0.00 0.00 0.00 86 1012.8
20260502122912 11 230 1.6 6.4 0.00 0.00 0.00 89 1012.7
20260502121803 11 245 0.0 3.2 0.00 0.00 0.00 90 1012.8
20260502120903 11 249 0.0 1.6 0.00 0.00 0.00 91 1012.7
20260502115616 11 250 0.0 4.8 0.00 0.00 0.00 91 1012.6
20260502113603 10 220 0.0 1.6 0.00 0.00 0.00 93 1012.6
20260502112703 10 220 0.0 3.2 0.00 0.00 0.00 94 1012.8
20260502111803 10 218 0.0 1.6 0.00 0.00 0.00 94 1012.5
20260502110903 10 0 0.0 0.0 0.00 0.00 0.00 95 1012.5
20260502110003 10 0 0.0 0.0 0.00 0.00 0.00 95 1012.3
20260502105403 10 0 0.0 0.0 0.00 0.00 0.00 95 1012.2
20260502104714 10 218 0.0 1.6 0.00 0.00 0.00 95 1012.1
20260502103603 10 218 0.0 1.6 0.00 0.00 0.00 94 1011.8
20260502102703 10 218 0.0 1.6 0.00 0.00 0.00 94 1011.8
20260502101803 10 218 0.0 1.6 0.00 0.00 0.00 94 1011.8
20260502100903 10 0 0.0 0.0 0.00 0.00 0.00 93 1011.8
20260502090903 10 243 3.2 8.0 0.00 0.00 0.00 93 1012.1
20260502070903 10 240 0.0 1.6 0.00 0.00 0.00 89 1012.1
20260502070003 10 240 0.0 4.8 0.00 0.00 0.00 88 1012.1
20260502065614 10 241 0.0 4.8 0.00 0.00 0.00 88 1011.9
20260502064503 10 229 1.6 4.8 0.00 0.00 0.00 88 1011.9
20260502063603 10 233 1.6 8.0 0.00 0.00 0.00 88 1011.9
20260502062703 10 243 0.0 6.4 0.00 0.00 0.00 87 1012.1
20260502061804 10 235 1.6 9.7 0.00 0.00 0.00 87 1012.3
20260502060903 10 233 1.6 8.0 0.00 0.00 0.00 87 1012.3
20260502060003 10 237 1.6 9.7 0.00 0.00 0.00 86 1012.3
20260502055403 10 227 3.2 12.9 0.00 0.00 0.00 86 1012.4
20260502054503 10 216 1.6 17.7 0.00 0.00 0.00 86 1012.5
20260502053603 10 229 3.2 11.3 0.00 0.00 0.00 85 1012.4
20260502052917 10 232 1.6 12.9 0.00 0.00 0.00 85 1012.2
20260502051803 10 229 3.2 11.3 0.00 0.00 0.00 84 1012.1
20260502050903 10 238 1.6 8.0 0.00 0.00 0.00 83 1012.2
20260502050214 10 217 1.6 8.0 0.00 0.00 0.00 83 1012.0
20260502045403 10 223 1.6 11.3 0.00 0.00 0.00 82 1012.0
20260502044503 10 225 1.6 8.0 0.00 0.00 0.00 81 1012.1
20260502043603 10 223 1.6 12.9 0.00 0.00 0.00 80 1012.2
20260502042703 10 218 1.6 4.8 0.00 0.00 0.00 80 1012.2
20260502041803 10 203 1.6 8.0 0.00 0.00 0.00 79 1012.2
20260502041112 11 229 1.6 9.7 0.00 0.00 0.00 79 1012.3
20260502040004 11 221 1.6 8.0 0.00 0.00 0.00 78 1012.4
20260502035403 11 236 1.6 9.7 0.00 0.00 0.00 78 1012.3
20260502034713 11 231 4.8 12.9 0.00 0.00 0.00 77 1012.3
20260502033603 11 225 3.2 12.9 0.00 0.00 0.00 77 1012.2
20260502032703 11 223 3.2 12.9 0.00 0.00 0.00 77 1012.3
20260502031803 11 227 3.2 9.7 0.00 0.00 0.00 78 1012.4
20260502031113 10 216 1.6 8.0 0.00 0.00 0.00 79 1012.2
20260502030003 10 189 1.6 9.7 0.00 0.00 0.00 80 1012.4
20260502025403 10 198 1.6 9.7 0.00 0.00 0.00 81 1012.5
20260502024503 10 230 1.6 6.4 0.00 0.00 0.00 83 1012.6
20260502023603 10 229 0.0 6.4 0.00 0.00 0.00 84 1012.6
20260502022914 10 245 0.0 3.2 0.00 0.00 0.00 85 1012.5
20260502021803 10 212 0.0 6.4 0.00 0.00 0.00 86 1012.7
20260502020903 10 218 0.0 4.8 0.00 0.00 0.00 87 1012.6
20260502020216 10 178 0.0 3.2 0.00 0.00 0.00 88 1012.3
20260502015403 10 182 0.0 4.8 0.00 0.00 0.00 89 1012.3
20260502014715 10 198 0.0 4.8 0.00 0.00 0.00 89 1012.2
20260502013603 10 227 0.0 6.4 0.00 0.00 0.00 89 1012.2
20260502012703 10 222 0.0 3.2 0.00 0.00 0.00 89 1012.1
20260502011803 10 235 0.0 1.6 0.00 0.00 0.00 88 1012.2
20260502011114 10 225 0.0 3.2 0.00 0.00 0.00 88 1012.0
20260502010003 11 226 0.0 3.2 0.00 0.00 0.00 87 1011.9
20260502005403 11 0 0.0 0.0 0.00 0.00 0.00 86 1011.9
20260502004503 11 186 0.0 6.4 0.00 0.00 0.00 85 1011.9
20260502003603 11 175 0.0 4.8 0.00 0.00 0.00 84 1011.8
20260502002703 11 175 0.0 3.2 0.00 0.00 0.00 83 1011.8
20260502002012 11 223 0.0 3.2 0.00 0.00 0.00 83 1011.7
20260502000903 12 203 1.6 8.0 0.00 0.00 0.00 82 1011.7
20260502000003 12 181 1.6 8.0 0.00 0.00 0.00 81 1011.6
20260501235403 12 162 1.6 4.8 0.00 0.00 0.00 81 1011.6
20260501234503 12 133 1.6 6.4 0.00 0.00 0.00 80 1011.4
20260501233603 13 149 1.6 6.4 0.00 0.00 0.00 79 1011.2
20260501232703 13 121 0.0 3.2 0.00 0.00 0.00 78 1011.3
20260501231803 13 150 1.6 4.8 0.00 0.00 0.00 77 1011.2
20260501230903 14 120 0.0 4.8 0.00 0.00 0.00 76 1011.1
20260501230213 14 159 1.6 8.0 0.00 0.00 0.00 75 1011.0
20260501225403 15 143 1.6 11.3 0.00 0.00 0.00 73 1011.0
20260501224503 15 113 1.6 11.3 0.00 0.00 0.00 72 1010.8
20260501223603 16 164 1.6 6.4 0.00 0.00 0.00 71 1010.9
20260501222703 16 162 3.2 9.7 0.00 0.00 0.00 69 1011.1
20260501221803 16 161 1.6 11.3 0.00 0.00 0.00 68 1011.1
20260501221116 16 146 3.2 11.3 0.00 0.00 0.00 68 1011.0
20260501220003 16 105 1.6 9.7 0.00 0.00 0.00 65 1011.0
20260501215403 16 90 3.2 11.3 0.00 0.00 0.00 64 1011.0
20260501214503 17 128 1.6 9.7 0.00 0.00 0.00 61 1011.1
20260501213603 18 133 1.6 9.7 0.00 0.00 0.00 60 1011.1
20260501212703 17 89 3.2 9.7 0.00 0.00 0.00 60 1011.1
20260501211803 19 151 1.6 8.0 0.00 0.00 0.00 58 1011.1
20260501210903 18 92 3.2 9.7 0.00 0.00 0.00 61 1011.0
20260501210003 18 89 3.2 11.3 0.00 0.00 0.00 61 1011.1
20260501205403 18 86 3.2 9.7 0.00 0.00 0.00 59 1011.2
20260501204503 18 107 3.2 9.7 0.00 0.00 0.00 58 1011.1
20260501203603 18 134 3.2 14.5 0.00 0.00 0.00 59 1011.2
20260501202703 18 127 3.2 9.7 0.00 0.00 0.00 60 1011.2
20260501201803 18 153 3.2 11.3 0.00 0.00 0.00 60 1011.3
20260501201112 18 188 4.8 12.9 0.00 0.00 0.00 61 1011.3
20260501200215 18 191 4.8 11.3 0.00 0.00 0.00 62 1011.3
20260501195616 17 129 3.2 12.9 0.00 0.00 0.00 62 1011.3
20260501194503 17 154 3.2 11.3 0.00 0.00 0.00 60 1011.5
20260501193816 17 109 4.8 17.7 0.00 0.00 0.00 61 1011.5
20260501192703 17 83 3.2 11.3 0.00 0.00 0.00 60 1011.6
20260501191803 17 100 3.2 12.9 0.00 0.00 0.00 61 1011.6
20260501191113 17 110 3.2 12.9 0.00 0.00 0.00 58 1011.7
20260501190003 17 112 3.2 14.5 0.00 0.00 0.00 59 1011.7
20260501185403 17 73 4.8 16.1 0.00 0.00 0.00 58 1011.8
20260501184503 16 59 6.4 17.7 0.00 0.00 0.00 56 1011.9
20260501183603 18 66 3.2 9.7 0.00 0.00 0.00 56 1012.0
20260501182703 19 217 1.6 9.7 0.00 0.00 0.00 50 1012.1
20260501181803 18 251 3.2 8.0 0.00 0.00 0.00 52 1012.2
20260501180903 18 231 4.8 16.1 0.00 0.00 0.00 50 1012.2
20260501180216 18 216 3.2 12.9 0.00 0.00 0.00 51 1012.2
20260501175403 18 228 4.8 14.5 0.00 0.00 0.00 52 1012.1
20260501174503 18 236 3.2 11.3 0.00 0.00 0.00 55 1012.1
20260501173603 18 240 3.2 11.3 0.00 0.00 0.00 51 1012.2
20260501172703 18 301 3.2 12.9 0.00 0.00 0.00 49 1012.2
20260501171803 17 310 3.2 12.9 0.00 0.00 0.00 48 1012.4
20260501170903 17 341 3.2 9.7 0.00 0.00 0.00 49 1012.4
20260501170003 17 237 3.2 14.5 0.00 0.00 0.00 52 1012.7
20260501165403 17 247 3.2 11.3 0.00 0.00 0.00 53 1012.6
20260501164503 17 310 3.2 9.7 0.00 0.00 0.00 55 1012.6
20260501163603 17 263 3.2 14.5 0.00 0.00 0.00 56 1012.8
20260501162915 17 241 4.8 16.1 0.00 0.00 0.00 54 1012.8
20260501161803 16 273 3.2 14.5 0.00 0.00 0.00 52 1012.9
20260501160903 16 243 3.2 12.9 0.00 0.00 0.00 58 1013.0
20260501160003 16 98 1.6 8.0 0.00 0.00 0.00 56 1013.2
20260501155615 16 65 1.6 8.0 0.00 0.00 0.00 55 1013.3
20260501154716 16 241 1.6 8.0 0.00 0.00 0.00 58 1013.4
20260501153603 15 224 3.2 12.9 0.00 0.00 0.00 57 1013.6
20260501152703 15 36 3.2 8.0 0.00 0.00 0.00 60 1013.7
20260501151803 15 37 3.2 9.7 0.00 0.00 0.00 57 1013.8
20260501150903 15 81 3.2 9.7 0.00 0.00 0.00 59 1013.8
20260501150004 15 66 1.6 8.0 0.00 0.00 0.00 61 1013.7
20260501145403 15 192 3.2 8.0 0.00 0.00 0.00 60 1013.7
20260501144503 14 241 4.8 11.3 0.00 0.00 0.00 62 1013.9
20260501143603 15 248 3.2 11.3 0.00 0.00 0.00 57 1013.8
20260501142703 15 261 1.6 6.4 0.00 0.00 0.00 59 1013.8
20260501141803 14 15 1.6 6.4 0.00 0.00 0.00 62 1013.7
20260501141116 14 21 1.6 6.4 0.00 0.00 0.00 61 1013.7
20260501140003 13 41 3.2 6.4 0.00 0.00 0.00 63 1013.6
20260501135403 13 266 3.2 8.0 0.00 0.00 0.00 62 1013.7
20260501134503 13 290 3.2 8.0 0.00 0.00 0.00 62 1013.9
20260501133603 14 360 1.6 8.0 0.00 0.00 0.00 60 1014.0